Station JMPN7 - 8658163 - Wrightsville Beach, NC Image indicating link to RSS feed of recent meteorological observations for station JMPN7


Conditions at JMPN7 as of
(7:00 pm EDT)
2300 GMT on 06/21/2024:
     

Click on the graph icon in the table below to see a time series plot of the last five days of that observation.

5-day plot - Wind Direction Wind Direction (WDIR): E ( 80 deg true )
5-day plot - Wind Speed Wind Speed (WSPD): 8.0 kts
5-day plot - Wind Gust Wind Gust (GST): 8.0 kts
5-day plot - Atmospheric Pressure Atmospheric Pressure (PRES):30.15 in
5-day plot - Pressure Tendency Pressure Tendency (PTDY):-0.02 in ( Falling )
5-day plot - Air Temperature Air Temperature (ATMP): 79.5 °F
5-day plot - Water Temperature Water Temperature (WTMP): 81.3 °F
5-day plot - Wind Speed at 10 Meters Wind Speed at 10 meters (WSPD10M): 7.8 kts
5-day plot - Wind Speed at 20 Meters Wind Speed at 20 meters (WSPD20M): 9.7 kts
5-day plot -  Wind Speed, Wind Gust and Atmospheric Pressure Combined plot of Wind Speed, Gust, and Air Pressure
NOS Water Level Observation Network Water Level
Previous observations
TIME
(EDT)
5-day plot - Wind Direction
WDIR
 
5-day plot - Wind Speed
WSPD
kts
5-day plot - Wind Gust
GST
kts
5-day plot - Wave Height
WVHT
ft
5-day plot - Dominant Wave Period
DPD
sec
5-day plot - Average Wave Period
APD
sec
5-day plot - Mean Wave Direction
MWD
 
5-day plot - Atmospheric Pressure
PRES
in
5-day plot - Pressure Tendency
PTDY
in
5-day plot - Air Temperature
ATMP
°F
5-day plot - Water Temperature
WTMP
°F
5-day plot - Dew Point
DEWP
°F
5-day plot - Salinity
SAL
psu
5-day plot - Visibility
VIS
nmi
5-day plot - Tide (above MLLW)
TIDE
ft
2024-06-21 06:54 pm E 7.0 8.0----30.15- 79.3 81.3----
2024-06-21 06:48 pm-------30.15- 79.3 81.3----
2024-06-21 06:42 pm-------30.15- 79.3 81.1----
2024-06-21 06:36 pm-------30.15- 79.3 81.1----
2024-06-21 06:30 pmENE 8.0 8.9----30.15- 79.5 81.1----
2024-06-21 06:24 pmENE 8.0 8.9----30.15- 79.3 81.1----
2024-06-21 06:18 pmENE 8.9 8.9----30.15- 79.3 81.1----
2024-06-21 06:12 pmENE 8.0 8.9----30.15- 79.2 81.1----
2024-06-21 06:06 pmENE 8.0 8.9----30.15- 79.2 81.0----
2024-06-21 06:00 pmENE 8.0 8.9----30.15-0.04 79.2 81.0----
2024-06-21 05:54 pmENE 8.0 9.9----30.15- 79.0 81.0----
2024-06-21 05:48 pmENE 9.9 9.9----30.15- 78.8 81.0----
2024-06-21 05:42 pmENE 8.9 9.9----30.15- 78.8 81.0----
2024-06-21 05:36 pm NE 9.9 11.1----30.15- 78.8 81.1----
2024-06-21 05:30 pm NE 9.9 11.1----30.15- 79.0 81.0----
2024-06-21 05:24 pm NE 9.9 11.1----30.15- 78.8 81.0----
2024-06-21 05:18 pm NE 11.1 12.0----30.16- 78.6 81.0----
2024-06-21 05:12 pm NE 11.1 12.0----30.16- 78.4 81.0----
2024-06-21 05:06 pm NE 11.1 12.0----30.16- 78.4 81.0----
2024-06-21 05:00 pm NE 11.1 12.0----30.16-0.04 78.3 81.0----
2024-06-21 04:54 pm NE 9.9 12.0----30.16- 78.4 81.1----
2024-06-21 04:48 pm NE 11.1 12.0----30.16- 77.9 80.8----
2024-06-21 04:42 pm NE 11.1 13.0----30.16- 77.9 81.0----
2024-06-21 04:36 pm NE 13.0 13.0----30.16- 77.9 81.1----
2024-06-21 04:30 pm NE 12.0 12.0----30.16- 77.9 81.0----
2024-06-21 04:24 pm NE 11.1 12.0----30.16- 77.9 80.8----
2024-06-21 04:18 pm NE 11.1 12.0----30.17- 77.7 80.8----
2024-06-21 04:12 pm NE 11.1 12.0----30.17- 77.5 80.8----
2024-06-21 04:06 pm NE 9.9 11.1----30.17- 77.7 80.8----
2024-06-21 04:00 pm NE 9.9 11.1----30.17-0.04 77.5 80.8----
2024-06-21 03:54 pm NE 11.1 12.0----30.17- 77.5 80.8----
2024-06-21 03:48 pm NE 11.1 12.0----30.17- 77.5 80.8----
2024-06-21 03:42 pm NE 11.1 12.0----30.18- 77.5 80.6----
2024-06-21 03:36 pm NE 12.0 13.0----30.18- 77.4 80.6----
2024-06-21 03:30 pm NE 9.9 11.1----30.18- 77.5 80.6----
2024-06-21 03:24 pm NE 8.9 9.9----30.18- 77.2 80.6----
2024-06-21 03:18 pm NE 9.9 11.1----30.18- 77.0 80.6----
2024-06-21 03:12 pm NE 9.9 11.1----30.19- 77.0 80.6----
2024-06-21 03:06 pmENE 9.9 9.9----30.19- 77.4 80.4----
2024-06-21 03:00 pmENE 8.9 9.9----30.19-0.04 77.5 80.4----
2024-06-21 02:54 pmENE 9.9 11.1----30.19- 77.5 80.6----
2024-06-21 02:48 pmENE 8.9 9.9----30.19- 77.5 80.6----
2024-06-21 02:42 pmENE 8.9 11.1----30.19- 77.5 80.4----
2024-06-21 02:36 pm NE 9.9 13.0----30.19- 77.7 80.4----
2024-06-21 02:30 pm NE 9.9 13.0----30.20- 77.9 80.4----
2024-06-21 02:24 pm NE 9.9 11.1----30.20- 77.9 80.4----
2024-06-21 02:18 pm NE 8.9 11.1----30.19- 77.9 80.4----
2024-06-21 02:12 pm NE 8.9 9.9----30.19- 77.7 80.4----
2024-06-21 02:06 pm NE 8.0 8.9----30.20- 77.9 80.4----
2024-06-21 02:00 pmNNE 8.0 9.9----30.20-0.02 77.7 80.4----
2024-06-21 01:54 pmNNE 8.9 9.9----30.20- 77.7 80.4----
2024-06-21 01:48 pmNNE 8.9 9.9----30.20- 77.7 80.2----
2024-06-21 01:42 pmNNE 8.9 9.9----30.20- 77.5 80.2----
2024-06-21 01:36 pm NE 8.0 9.9----30.21- 77.4 80.2----
2024-06-21 01:30 pmNNE 8.0 8.9----30.21- 77.0 80.2----
2024-06-21 01:24 pmNNE 8.0 9.9----30.21- 77.0 80.1----
2024-06-21 01:18 pmNNE 8.9 9.9----30.21- 76.8 80.1----
2024-06-21 01:12 pmNNE 7.0 8.9----30.21- 76.6 80.1----
2024-06-21 01:06 pmNNE 7.0 8.0----30.22- 76.6 80.1----
2024-06-21 01:00 pmNNE 8.0 9.9----30.22+0.00 76.5 80.1----
2024-06-21 12:54 pmNNE 8.0 8.9----30.22- 76.1 80.1----
2024-06-21 12:48 pmNNE 7.0 8.0----30.22- 76.3 80.1----
2024-06-21 12:42 pm NE 8.0 8.9----30.22- 76.3 80.1----
2024-06-21 12:36 pm NE 8.0 8.9----30.22- 76.3 80.1----
2024-06-21 12:30 pm NE 8.0 9.9----30.22- 75.7 80.1----
2024-06-21 12:24 pm NE 8.0 8.9----30.22- 75.7 80.1----
2024-06-21 12:18 pm NE 8.9 11.1----30.22- 75.2 80.1----
2024-06-21 12:12 pm NE 8.9 11.1----30.22- 75.7 80.2----
2024-06-21 12:06 pm NE 11.1 12.0----30.22- 74.8 80.2----
2024-06-21 12:00 pm NE 8.0 9.9----30.22+0.00 75.0 80.2----
2024-06-21 11:54 am NE 9.9 12.0----30.23- 74.5 80.2----
2024-06-21 11:48 amNNE 11.1 12.0----30.22- 75.7 80.2----
2024-06-21 11:42 amNNE 12.0 13.0----30.22- 75.7 80.2----
2024-06-21 11:36 am NE 13.0 15.0----30.22- 75.7 80.2----
2024-06-21 11:30 am NE 15.0 17.1----30.22- 75.9 80.2----
2024-06-21 11:24 am NE 15.9 17.1----30.22- 76.1 80.2----
2024-06-21 11:18 am NE 13.0 14.0----30.22- 76.6 80.4----
2024-06-21 11:12 amENE 13.0 14.0----30.22- 77.0 80.2----
2024-06-21 11:06 am NE 13.0 14.0----30.22- 77.0 80.2----
2024-06-21 11:00 am NE 9.9 13.0----30.22+0.01 76.8 80.2----
2024-06-21 10:54 am NE 12.0 14.0----30.22- 76.5 80.2----
2024-06-21 10:48 amENE 13.0 15.9----30.22- 77.0 80.1----
2024-06-21 10:42 amENE 14.0 15.0----30.22- 77.4 80.1----
2024-06-21 10:36 amENE 14.0 15.0----30.21- 77.5 80.1----
2024-06-21 10:30 amENE 13.0 15.0----30.21- 77.9 80.1----
2024-06-21 10:24 amENE 13.0 15.0----30.21- 78.1 79.9----
2024-06-21 10:18 amENE 12.0 15.0----30.21- 78.8 79.9----
2024-06-21 10:12 amENE 12.0 15.0----30.21- 78.3 79.9----
2024-06-21 10:06 amENE 12.0 15.0----30.21- 78.1 79.9----
2024-06-21 10:00 amENE 15.0 15.9----30.21+0.01 78.4 79.9----
2024-06-21 09:54 amENE 13.0 15.0----30.21- 78.6 79.9----
2024-06-21 09:48 amENE 12.0 14.0----30.21- 78.4 79.9----
2024-06-21 09:42 amENE 14.0 15.0----30.21- 78.1 79.9----
2024-06-21 09:36 amENE 14.0 15.9----30.21- 78.6 79.9----
2024-06-21 09:30 amENE 15.0 15.9----30.22- 78.6 79.9----
2024-06-21 09:24 amENE 12.0 17.1----30.21- 78.6 79.7----
2024-06-21 09:18 amENE 12.0 17.1----30.22- 77.9 79.7----
2024-06-21 09:12 amENE 15.0 15.9----30.22- 78.1 79.7----
2024-06-21 09:06 am E 14.0 15.9----30.22- 78.1 79.7----
2024-06-21 09:00 am E 15.0 17.1----30.22+0.01 78.1 79.7----
2024-06-21 08:54 amENE 14.0 17.1----30.22- 78.4 79.9----
2024-06-21 08:48 amENE 15.0 15.9----30.22- 78.3 79.9----
2024-06-21 08:42 amENE 15.0 15.9----30.22- 78.3 79.9----
2024-06-21 08:36 am E 14.0 15.0----30.22- 78.4 79.9----
2024-06-21 08:30 amENE 12.0 15.0----30.22- 78.4 79.7----
2024-06-21 08:24 amENE 15.0 15.9----30.22- 78.3 79.7----
2024-06-21 08:18 amENE 13.0 15.9----30.21- 78.4 79.9----
2024-06-21 08:12 amENE 14.0 15.0----30.21- 78.3 79.7----
2024-06-21 08:06 amENE 13.0 15.0----30.21- 78.3 79.5----
2024-06-21 08:00 amENE 13.0 15.0----30.21+0.01 78.3 79.9----
2024-06-21 07:54 amENE 14.0 15.9----30.21- 78.4 79.9----
2024-06-21 07:48 am E 14.0 15.9----30.21- 78.4 79.9----
2024-06-21 07:42 amENE 14.0 15.9----30.21- 78.3 79.9----
2024-06-21 07:36 amENE 13.0 15.0----30.21- 78.3 79.9----
2024-06-21 07:30 amENE 12.0 15.0----30.21- 78.1 79.7----
2024-06-21 07:24 amENE 14.0 15.9----30.21- 77.9 79.5----
2024-06-21 07:18 amENE 14.0 15.9----30.21- 78.1 79.5----
2024-06-21 07:12 amENE 14.0 15.9----30.21- 78.1 79.7----
2024-06-21 07:06 amENE 13.0 15.0----30.20- 78.1 79.7----
2024-06-21 07:00 amENE 13.0 15.0----30.20+0.00 78.3 79.7----
2024-06-21 06:54 amENE 14.0 15.0----30.20- 77.9 79.7----
2024-06-21 06:48 amENE 13.0 15.0----30.20- 77.9 79.7----
2024-06-21 06:42 amENE 13.0 14.0----30.20- 77.7 79.7----
2024-06-21 06:36 amENE 13.0 14.0----30.20- 77.5 79.7----
2024-06-21 06:30 amENE 13.0 15.0----30.21- 77.5 79.7----
2024-06-21 06:24 amENE 12.0 14.0----30.21- 77.5 79.9----
2024-06-21 06:18 amENE 13.0 14.0----30.21- 77.7 79.9----
2024-06-21 06:12 amENE 13.0 14.0----30.21- 77.9 79.5----
2024-06-21 06:06 amENE 12.0 13.0----30.21- 77.5 79.5----
2024-06-21 06:00 amENE 13.0 14.0----30.21-0.01 77.5 79.9----
2024-06-21 05:54 amENE 13.0 15.0----30.21- 77.5 79.9----
2024-06-21 05:48 amENE 13.0 14.0----30.21- 77.5 79.9----
2024-06-21 05:42 amENE 13.0 15.0----30.21- 77.5 79.9----
2024-06-21 05:36 amENE 13.0 14.0----30.20- 77.4 79.7----
2024-06-21 05:30 amENE 13.0 14.0----30.20- 77.5 79.7----
2024-06-21 05:24 amENE 13.0 14.0----30.20- 77.7 79.9----
2024-06-21 05:18 amENE 12.0 15.0----30.20- 77.5 79.9----
2024-06-21 05:12 amENE 13.0 14.0----30.20- 77.7 79.7----
2024-06-21 05:06 amENE 12.0 14.0----30.20- 77.5 79.9----
2024-06-21 05:00 amENE 13.0 14.0----30.20-0.04 77.4 79.7----
2024-06-21 04:54 amENE 12.0 14.0----30.20- 77.5 80.1----
2024-06-21 04:48 amENE 12.0 14.0----30.20- 77.5 80.1----
2024-06-21 04:42 am E 12.0 14.0----30.20- 77.5 80.2----
2024-06-21 04:36 amENE 12.0 14.0----30.20- 77.5 80.2----
2024-06-21 04:30 amENE 13.0 14.0----30.20- 77.7 80.2----
2024-06-21 04:24 am E 12.0 14.0----30.21- 77.5 80.1----
2024-06-21 04:18 amENE 13.0 15.0----30.21- 77.7 80.1----
2024-06-21 04:12 am E 14.0 15.0----30.21- 77.5 80.1----
2024-06-21 04:06 am E 13.0 15.0----30.21- 77.7 80.1----
2024-06-21 04:00 am E 13.0 15.0----30.21-0.03 77.7 79.9----
2024-06-21 03:54 am E 14.0 15.0----30.21- 77.7 80.1----
2024-06-21 03:48 am E 13.0 14.0----30.21- 77.7 80.1----
2024-06-21 03:42 am E 13.0 15.0----30.21- 77.7 80.1----
2024-06-21 03:36 am E 13.0 15.9----30.21- 77.7 80.1----
2024-06-21 03:30 am E 12.0 14.0----30.21- 77.9 79.9----
2024-06-21 03:24 am E 13.0 15.0----30.21- 77.9 80.1----
2024-06-21 03:18 am E 13.0 14.0----30.22- 77.9 79.9----
2024-06-21 03:12 am E 13.0 15.0----30.22- 77.7 79.9----
2024-06-21 03:06 am E 13.0 15.0----30.22- 77.7 79.9----
2024-06-21 03:00 am E 12.0 15.0----30.22-0.03 78.1 79.9----
2024-06-21 02:54 am E 13.0 14.0----30.22- 77.9 79.9----
2024-06-21 02:48 am E 12.0 15.0----30.22- 77.9 80.1----
2024-06-21 02:42 am E 14.0 15.0----30.22- 78.1 80.1----
2024-06-21 02:36 am E 13.0 15.0----30.23- 77.9 80.1----
2024-06-21 02:30 amENE 13.0 14.0----30.23- 77.9 80.1----
2024-06-21 02:24 amENE 13.0 14.0----30.23- 78.1 80.1----
2024-06-21 02:18 am E 12.0 14.0----30.23- 77.9 79.9----
2024-06-21 02:12 am E 12.0 13.0----30.24- 77.9 79.9----
2024-06-21 02:06 am E 13.0 14.0----30.24- 78.1 80.2----
2024-06-21 02:00 am E 12.0 15.0----30.24-0.02 78.1 80.1----
2024-06-21 01:54 am E 12.0 15.9----30.24- 77.9 80.1----
2024-06-21 01:48 am E 14.0 15.9----30.24- 78.1 80.2----
2024-06-21 01:42 am E 12.0 15.9----30.24- 78.1 80.2----
2024-06-21 01:36 am E 14.0 15.9----30.24- 77.9 80.2----
2024-06-21 01:30 am E 14.0 15.9----30.24- 77.9 80.1----
2024-06-21 01:24 am E 14.0 15.9----30.24- 77.7 80.2----
2024-06-21 01:18 am E 14.0 15.0----30.24- 77.9 80.2----
2024-06-21 01:12 am E 15.0 17.1----30.24- 77.7 80.2----
2024-06-21 01:06 am E 15.9 18.1----30.24- 77.9 80.1----
2024-06-21 01:00 am E 15.0 17.1----30.24-0.02 77.9 80.2----
2024-06-21 12:54 am E 14.0 17.1----30.24- 78.1 80.1----
2024-06-21 12:48 am E 15.0 15.9----30.24- 78.1 80.4----
2024-06-21 12:42 am E 15.0 17.1----30.24- 78.1 80.4----
2024-06-21 12:36 am E 15.0 18.1----30.24- 78.1 80.2----
2024-06-21 12:30 am E 15.0 15.9----30.24- 78.1 80.1----
2024-06-21 12:24 am E 15.0 18.1----30.25- 78.3 80.1----
2024-06-21 12:18 am E 15.9 17.1----30.24- 78.1 80.2----
2024-06-21 12:12 am E 15.0 18.1----30.25- 78.1 80.1----
2024-06-21 12:06 am E 15.9 18.1----30.24- 78.3 80.1----
2024-06-21 12:00 am E 15.9 17.1----30.25+0.00 78.3 80.2----
2024-06-20 11:54 pm E 15.9 17.1----30.25- 78.3 80.2----
2024-06-20 11:48 pm E 15.0 17.1----30.25- 78.3 80.2----
2024-06-20 11:42 pm E 14.0 15.9----30.25- 78.3 80.2----
2024-06-20 11:36 pm E 15.0 15.9----30.25- 78.3 80.1----
2024-06-20 11:30 pm E 14.0 15.9----30.25- 78.3 80.1----
2024-06-20 11:24 pm E 14.0 17.1----30.25- 78.3 80.2----
2024-06-20 11:18 pm E 14.0 15.9----30.25- 78.3 80.1----
2024-06-20 11:12 pm E 13.0 15.0----30.25- 78.1 80.2----
2024-06-20 11:06 pm E 14.0 15.0----30.25- 78.1 80.2----
2024-06-20 11:00 pm E 13.0 15.0----30.26+0.01 78.1 80.2----
2024-06-20 10:54 pm E 14.0 15.0----30.26- 78.1 80.2----
2024-06-20 10:48 pm E 13.0 14.0----30.26- 78.1 80.1----
2024-06-20 10:42 pm E 13.0 15.0----30.26- 78.1 80.1----
2024-06-20 10:36 pmENE 13.0 15.0----30.26- 78.3 80.2----
2024-06-20 10:30 pm E 13.0 14.0----30.26- 78.3 80.2----
2024-06-20 10:24 pm E 13.0 14.0----30.26- 78.3 80.2----
2024-06-20 10:18 pm E 13.0 15.0----30.26- 78.3 80.2----
2024-06-20 10:12 pm E 13.0 15.0----30.26- 78.3 80.2----
2024-06-20 10:06 pm E 13.0 15.0----30.26- 78.3 80.2----
2024-06-20 10:00 pm E 13.0 15.0----30.25+0.00 78.4 80.4----
2024-06-20 09:54 pm E 12.0 15.9----30.25- 78.4 80.4----
2024-06-20 09:48 pm E 13.0 17.1----30.25- 78.3 80.4----
2024-06-20 09:42 pm E 13.0 15.0----30.25- 78.6 80.4----
2024-06-20 09:36 pm E 14.0 15.0----30.25- 78.3 80.4----
2024-06-20 09:30 pm E 13.0 15.9----30.25- 78.4 80.2----
2024-06-20 09:24 pm E 15.9 18.1----30.25- 78.6 80.2----
2024-06-20 09:18 pmENE 14.0 15.9----30.25- 78.4 80.4----
2024-06-20 09:12 pmENE 15.0 17.1----30.25- 78.4 80.6----
2024-06-20 09:06 pm E 14.0 15.9----30.24- 78.6 80.6----
2024-06-20 09:00 pm E 14.0 15.9----30.25+0.00 78.4 80.6----
2024-06-20 08:54 pm E 14.0 15.9----30.24- 78.3 80.6----
2024-06-20 08:48 pm E 15.0 15.9----30.24- 78.4 80.4----
2024-06-20 08:42 pm E 14.0 15.0----30.24- 78.4 80.6----
2024-06-20 08:36 pm E 14.0 15.9----30.24- 78.6 80.6----
2024-06-20 08:30 pm E 14.0 15.0----30.24- 78.4 80.8----
2024-06-20 08:24 pmENE 14.0 15.9----30.24- 78.4 80.8----
2024-06-20 08:18 pmENE 14.0 15.9----30.24- 78.6 80.8----
2024-06-20 08:12 pm E 14.0 15.0----30.24- 78.6 80.8----
2024-06-20 08:06 pm E 12.0 15.0----30.24- 78.6 80.8----
2024-06-20 08:00 pm E 13.0 15.9----30.24-0.02 78.6 80.8----
2024-06-20 07:54 pmENE 14.0 15.0----30.24- 78.6 80.8----
2024-06-20 07:48 pmENE 14.0 15.0----30.24- 78.6 80.8----
2024-06-20 07:42 pmENE 14.0 15.0----30.24- 78.6 80.8----
2024-06-20 07:36 pm E 14.0 15.0----30.24- 78.6 81.0----
2024-06-20 07:30 pm E 14.0 15.0----30.24- 78.6 80.8----
2024-06-20 07:24 pm E 14.0 15.0----30.24- 78.6 80.8----
2024-06-20 07:00 pm E 15.0 17.1----30.25-0.04 78.6 81.0----
2024-06-20 06:54 pm E 15.0 15.9----30.25- 78.8 81.1----